Time,TemperatureF,DewpointF,PressureIn,WindDirection,WindDirectionDegrees,WindSpeedMPH,WindSpeedGustMPH,Humidity,HourlyPrecipIn,Conditions,Clouds,dailyrainin,SolarRadiationWatts/m^2,SoftwareType,DateUTC
2013-02-09 00:21:00,40.0,34.0,29.87,SSW,192,20.0,35.0,80,0.00,,,0.02,0.000000,,2013-02-09 08:21:00,
2013-02-09 00:31:00,40.0,34.0,29.87,SSW,192,20.0,35.0,80,0.00,,,0.02,0.000000,,2013-02-09 08:31:00,
2013-02-09 00:41:00,40.0,34.0,29.87,SSW,192,20.0,35.0,80,0.00,,,0.02,0.000000,,2013-02-09 08:41:00,
2013-02-09 00:52:00,40.0,34.0,29.87,SSW,192,20.0,35.0,80,0.00,,,0.02,0.000000,,2013-02-09 08:52:00,
2013-02-09 01:21:00,40.0,37.0,29.88,WSW,251,20.0,48.0,88,0.00,,,0.02,0.000000,,2013-02-09 09:21:00,
2013-02-09 01:31:00,40.0,37.0,29.88,WSW,251,20.0,48.0,88,0.00,,,0.02,0.000000,,2013-02-09 09:31:00,
2013-02-09 01:41:00,40.0,37.0,29.88,WSW,251,20.0,48.0,88,0.00,,,0.02,0.000000,,2013-02-09 09:41:00,
2013-02-09 01:51:00,40.0,37.0,29.88,WSW,251,20.0,48.0,88,0.00,,,0.02,0.000000,,2013-02-09 09:51:00,
2013-02-09 02:21:00,40.0,36.0,29.89,NNW,342,23.0,47.0,85,0.00,,,0.02,0.000000,,2013-02-09 10:21:00,
2013-02-09 02:31:00,40.0,36.0,29.89,NNW,342,23.0,47.0,85,0.00,,,0.02,0.000000,,2013-02-09 10:31:00,
2013-02-09 02:41:00,40.0,36.0,29.89,NNW,342,23.0,47.0,85,0.00,,,0.02,0.000000,,2013-02-09 10:41:00,
2013-02-09 02:51:00,40.0,36.0,29.89,NNW,342,23.0,47.0,85,0.00,,,0.02,0.000000,,2013-02-09 10:51:00,
2013-02-09 03:21:00,40.0,30.0,29.89,WNW,295,23.0,48.0,67,0.00,,,0.02,0.000000,,2013-02-09 11:21:00,
2013-02-09 03:31:00,40.0,30.0,29.89,WNW,295,23.0,48.0,67,0.00,,,0.02,0.000000,,2013-02-09 11:31:00,
2013-02-09 03:41:00,40.0,30.0,29.89,WNW,295,23.0,48.0,67,0.00,,,0.02,0.000000,,2013-02-09 11:41:00,
2013-02-09 03:52:00,40.0,30.0,29.89,WNW,295,23.0,48.0,67,0.00,,,0.02,0.000000,,2013-02-09 11:52:00,
2013-02-09 04:21:00,39.0,30.0,29.89,SSW,193,29.0,67.0,70,0.00,,,0.02,0.000000,,2013-02-09 12:21:00,
2013-02-09 04:32:00,39.0,30.0,29.89,SSW,193,29.0,67.0,70,0.00,,,0.02,0.000000,,2013-02-09 12:32:00,
2013-02-09 04:42:00,39.0,30.0,29.89,SSW,193,29.0,67.0,70,0.00,,,0.02,0.000000,,2013-02-09 12:42:00,
2013-02-09 04:52:00,39.0,30.0,29.89,SSW,193,29.0,67.0,70,0.00,,,0.02,0.000000,,2013-02-09 12:52:00,
2013-02-09 05:21:00,43.0,27.0,29.89,NNE,17,22.0,50.0,53,0.00,,,0.02,0.000000,,2013-02-09 13:21:00,
2013-02-09 05:32:00,43.0,27.0,29.89,NNE,17,22.0,50.0,53,0.00,,,0.02,0.000000,,2013-02-09 13:32:00,
2013-02-09 05:42:00,43.0,27.0,29.89,NNE,17,22.0,50.0,53,0.00,,,0.02,0.000000,,2013-02-09 13:42:00,
2013-02-09 05:51:00,43.0,27.0,29.89,NNE,17,22.0,50.0,53,0.00,,,0.02,0.000000,,2013-02-09 13:51:00,
2013-02-09 06:21:00,41.0,29.0,29.90,ESE,104,6.0,48.0,62,-99.99,,,0.02,0.000000,,2013-02-09 14:21:00,
2013-02-09 06:31:00,41.0,29.0,29.90,ESE,104,6.0,48.0,62,-99.99,,,0.02,0.000000,,2013-02-09 14:31:00,
2013-02-09 06:41:00,41.0,29.0,29.90,ESE,104,6.0,48.0,62,-99.99,,,0.02,0.000000,,2013-02-09 14:41:00,
2013-02-09 06:52:00,41.0,29.0,29.90,ESE,104,6.0,48.0,62,-99.99,,,0.02,0.000000,,2013-02-09 14:52:00,
2013-02-09 07:21:00,39.0,29.0,29.91,South,188,23.0,31.0,67,0.00,,,0.02,0.000000,,2013-02-09 15:21:00,
2013-02-09 07:31:00,39.0,29.0,29.91,South,188,23.0,31.0,67,0.00,,,0.02,0.000000,,2013-02-09 15:31:00,
2013-02-09 07:41:00,39.0,29.0,29.91,South,188,23.0,31.0,67,0.00,,,0.02,0.000000,,2013-02-09 15:41:00,
2013-02-09 07:51:00,39.0,29.0,29.91,South,188,23.0,31.0,67,0.00,,,0.02,0.000000,,2013-02-09 15:51:00,
2013-02-09 08:22:00,39.0,28.0,29.94,WSW,252,20.0,49.0,64,0.00,,,0.02,4.000000,,2013-02-09 16:22:00,
2013-02-09 08:31:00,39.0,28.0,29.94,WSW,252,20.0,49.0,64,0.00,,,0.02,4.000000,,2013-02-09 16:31:00,
2013-02-09 08:41:00,39.0,28.0,29.94,WSW,252,20.0,49.0,64,0.00,,,0.02,4.000000,,2013-02-09 16:41:00,
2013-02-09 08:51:00,39.0,28.0,29.94,WSW,252,20.0,49.0,64,0.00,,,0.02,4.000000,,2013-02-09 16:51:00,
2013-02-09 09:21:00,50.0,34.0,29.95,West,260,10.0,35.0,55,0.00,,,0.02,208.000000,,2013-02-09 17:21:00,
2013-02-09 10:23:00,50.0,35.0,29.97,NW,314,7.0,24.0,57,-99.99,,,0.02,475.000000,,2013-02-09 18:23:00,
2013-02-09 10:31:00,50.0,35.0,29.97,NW,314,7.0,24.0,57,-99.99,,,0.02,475.000000,,2013-02-09 18:31:00,
2013-02-09 10:41:00,50.0,35.0,29.97,NW,314,7.0,24.0,57,-99.99,,,0.02,475.000000,,2013-02-09 18:41:00,
2013-02-09 10:51:00,50.0,35.0,29.97,NW,314,7.0,24.0,57,-99.99,,,0.02,475.000000,,2013-02-09 18:51:00,
2013-02-09 11:22:00,51.0,37.0,29.99,SSW,207,7.0,35.0,59,0.00,,,0.02,741.000000,,2013-02-09 19:22:00,
2013-02-09 11:31:00,51.0,37.0,29.99,SSW,207,7.0,35.0,59,0.00,,,0.02,741.000000,,2013-02-09 19:31:00,
2013-02-09 11:41:00,51.0,37.0,29.99,SSW,207,7.0,35.0,59,0.00,,,0.02,741.000000,,2013-02-09 19:41:00,
2013-02-09 11:52:00,51.0,37.0,29.99,SSW,207,7.0,35.0,59,0.00,,,0.02,741.000000,,2013-02-09 19:52:00,
2013-02-09 12:21:00,53.0,38.0,30.01,NE,38,8.0,113.0,56,0.00,,,0.02,823.000000,,2013-02-09 20:21:00,
2013-02-09 12:31:00,53.0,38.0,30.01,NE,38,8.0,113.0,56,0.00,,,0.02,823.000000,,2013-02-09 20:31:00,
2013-02-09 12:41:00,53.0,38.0,30.01,NE,38,8.0,113.0,56,0.00,,,0.02,823.000000,,2013-02-09 20:41:00,
2013-02-09 12:52:00,53.0,38.0,30.01,NE,38,8.0,113.0,56,0.00,,,0.02,823.000000,,2013-02-09 20:52:00,
2013-02-09 13:21:00,52.0,35.0,30.01,NNE,12,8.0,72.0,53,0.00,,,0.01,945.000000,,2013-02-09 21:21:00,
2013-02-09 13:31:00,52.0,35.0,30.01,NNE,12,8.0,72.0,53,0.00,,,0.01,945.000000,,2013-02-09 21:31:00,
2013-02-09 13:41:00,52.0,35.0,30.01,NNE,12,8.0,72.0,53,0.00,,,0.01,945.000000,,2013-02-09 21:41:00,
2013-02-09 13:52:00,52.0,35.0,30.01,NNE,12,8.0,72.0,53,0.00,,,0.01,945.000000,,2013-02-09 21:52:00,
2013-02-09 14:21:00,53.0,33.0,29.98,SSW,202,9.0,36.0,46,0.00,,,0.01,952.000000,,2013-02-09 22:21:00,
2013-02-09 14:31:00,53.0,33.0,29.98,SSW,202,9.0,36.0,46,0.00,,,0.01,952.000000,,2013-02-09 22:31:00,
2013-02-09 14:41:00,53.0,33.0,29.98,SSW,202,9.0,36.0,46,0.00,,,0.01,952.000000,,2013-02-09 22:41:00,
2013-02-09 14:51:00,53.0,33.0,29.98,SSW,202,9.0,36.0,46,0.00,,,0.01,952.000000,,2013-02-09 22:51:00,
2013-02-09 15:21:00,55.0,33.0,29.98,SSW,207,9.0,38.0,43,0.00,,,0.01,907.000000,,2013-02-09 23:21:00,
2013-02-09 15:31:00,55.0,33.0,29.98,SSW,207,9.0,38.0,43,0.00,,,0.01,907.000000,,2013-02-09 23:31:00,
2013-02-09 15:41:00,55.0,33.0,29.98,SSW,207,9.0,38.0,43,0.00,,,0.01,907.000000,,2013-02-09 23:41:00,
2013-02-09 15:52:00,55.0,33.0,29.98,SSW,207,9.0,38.0,43,0.00,,,0.01,907.000000,,2013-02-09 23:52:00,
2013-02-09 16:21:00,56.0,37.0,29.98,South,177,6.0,37.0,48,0.00,,,0.01,734.000000,,2013-02-10 00:21:00,
2013-02-09 16:32:00,56.0,37.0,29.98,South,177,6.0,37.0,48,0.00,,,0.01,734.000000,,2013-02-10 00:32:00,
2013-02-09 16:41:00,56.0,37.0,29.98,South,177,6.0,37.0,48,0.00,,,0.01,734.000000,,2013-02-10 00:41:00,
2013-02-09 16:51:00,56.0,37.0,29.98,South,177,6.0,37.0,48,0.00,,,0.01,734.000000,,2013-02-10 00:51:00,
2013-02-09 17:21:00,52.0,35.0,29.98,NNE,31,13.0,71.0,53,0.00,,,0.01,455.000000,,2013-02-10 01:21:00,
2013-02-09 17:31:00,52.0,35.0,29.98,NNE,31,13.0,71.0,53,0.00,,,0.01,455.000000,,2013-02-10 01:31:00,
2013-02-09 17:41:00,52.0,35.0,29.98,NNE,31,13.0,71.0,53,0.00,,,0.01,455.000000,,2013-02-10 01:41:00,
2013-02-09 17:51:00,52.0,35.0,29.98,NNE,31,13.0,71.0,53,0.00,,,0.01,455.000000,,2013-02-10 01:51:00,
2013-02-09 18:22:00,51.0,38.0,29.98,SSE,163,26.0,37.0,61,0.00,,,0.01,148.000000,,2013-02-10 02:22:00,
2013-02-09 18:31:00,51.0,38.0,29.98,SSE,163,26.0,37.0,61,0.00,,,0.01,148.000000,,2013-02-10 02:31:00,
2013-02-09 18:41:00,51.0,38.0,29.98,SSE,163,26.0,37.0,61,0.00,,,0.01,148.000000,,2013-02-10 02:41:00,
2013-02-09 18:52:00,51.0,38.0,29.98,SSE,163,26.0,37.0,61,0.00,,,0.01,148.000000,,2013-02-10 02:52:00,
2013-02-09 19:21:00,44.0,35.0,29.98,SSW,202,16.0,27.0,70,0.00,,,0.00,22.000000,,2013-02-10 03:21:00,
2013-02-09 19:32:00,44.0,35.0,29.98,SSW,202,16.0,27.0,70,0.00,,,0.00,22.000000,,2013-02-10 03:32:00,
2013-02-09 19:41:00,44.0,35.0,29.98,SSW,202,16.0,27.0,70,0.00,,,0.00,22.000000,,2013-02-10 03:41:00,
2013-02-09 19:51:00,44.0,35.0,29.98,SSW,202,16.0,27.0,70,0.00,,,0.00,22.000000,,2013-02-10 03:51:00,
2013-02-09 20:21:00,44.0,35.0,30.01,WSW,256,20.0,27.0,70,0.00,,,0.00,0.000000,,2013-02-10 04:21:00,
2013-02-09 20:32:00,44.0,35.0,30.01,WSW,256,20.0,27.0,70,0.00,,,0.00,0.000000,,2013-02-10 04:32:00,
2013-02-09 20:41:00,44.0,35.0,30.01,WSW,256,20.0,27.0,70,0.00,,,0.00,0.000000,,2013-02-10 04:41:00,
2013-02-09 20:51:00,44.0,35.0,30.01,WSW,256,20.0,27.0,70,0.00,,,0.00,0.000000,,2013-02-10 04:51:00,
2013-02-09 21:22:00,45.0,35.0,30.02,ESE,120,20.0,39.0,69,0.00,,,0.00,0.000000,,2013-02-10 05:22:00,
2013-02-09 21:31:00,45.0,35.0,30.02,ESE,120,20.0,39.0,69,0.00,,,0.00,0.000000,,2013-02-10 05:31:00,
2013-02-09 21:41:00,45.0,35.0,30.02,ESE,120,20.0,39.0,69,0.00,,,0.00,0.000000,,2013-02-10 05:41:00,
2013-02-09 21:52:00,45.0,35.0,30.02,ESE,120,20.0,39.0,69,0.00,,,0.00,0.000000,,2013-02-10 05:52:00,
2013-02-09 22:21:00,45.0,34.0,30.03,North,349,12.0,26.0,65,0.00,,,0.00,0.000000,,2013-02-10 06:21:00,
2013-02-09 22:32:00,45.0,34.0,30.03,North,349,12.0,26.0,65,0.00,,,0.00,0.000000,,2013-02-10 06:32:00,
2013-02-09 22:42:00,45.0,34.0,30.03,North,349,12.0,26.0,65,0.00,,,0.00,0.000000,,2013-02-10 06:42:00,
2013-02-09 22:51:00,45.0,34.0,30.03,North,349,12.0,26.0,65,0.00,,,0.00,0.000000,,2013-02-10 06:51:00,
2013-02-09 23:21:00,42.0,33.0,30.04,SSE,152,17.0,25.0,71,0.00,,,0.00,0.000000,,2013-02-10 07:21:00,
2013-02-09 23:31:00,42.0,33.0,30.04,SSE,152,17.0,25.0,71,0.00,,,0.00,0.000000,,2013-02-10 07:31:00,
2013-02-09 23:41:00,42.0,33.0,30.04,SSE,152,17.0,25.0,71,0.00,,,0.00,0.000000,,2013-02-10 07:41:00,
2013-02-09 23:51:00,42.0,33.0,30.04,SSE,152,17.0,25.0,71,0.00,,,0.00,0.000000,,2013-02-10 07:51:00,